Location: ??????
(42.0089°N, 44.3281°E)
Time: 17:46:37
(UTC+00:00)

USA 267 - Pass Details

Date: 03 June 2022
Orbit: 1101 x 1106 km, 123.0° (Epoch: 28 June)

Event Time Altitude Azimuth Distance (km) Brightness Sun altitude
Rises 23:31:14 0° 155° (SSE) 3,903 5.9 -16.8°
Reaches altitude 10° 23:33:53 10° 162° (SSE) 2,948 5.2 -16.5°
Maximum altitude 23:39:57 41° 231° (SW) 1,547 3.6 -15.8°
Drops below altitude 10° 23:46:03 10° 300° (WNW) 2,962 5.4 -15.1°
Sets 23:48:43 0° 307° (NW) 3,923 6.1 -14.8°
